Date String (YYYY-MM-DD hh:mm:ss) UTC,Instrument flags,absolute air pressure of the measurement (hPa),sample flow rate (lpm),inlet stack bypass flow (lpm),air temperature of the measurement (°C),ambient temperature measured by the external sensor (°C),aerosol sample conditioner tube jacket temperature (°C),OPC LED temperature (°C),internal box temperature (°C),relative humidity of the measurement (%),span deviation,mass concentration of particles derived from Lorenz-Mie calculation of OPC scattering (μg/m³),mass concentration of particles derived from Lorenz-Mie calculation of OPC scattering (μg/m³),mass concentration of particles derived from Lorenz-Mie calculation of OPC scattering (μg/m³)
DateTimeUTC,F1_M11,P_M11,Q1_M11,Q2_M11,T1_M11,T2_M11,T3_M11,T4_M11,T5_M11,U1_M11,ZSPAN_M11,X0_M11,X2_M11,X1_M11
2024-03-20 06:00:00,SystemResetWarning,0827.7,5.00,000.00,023.2,022.3,000.0,031.9,025.0,12.6,0000.0,0007.27,0002.31,0001.20
2024-03-20 06:01:00,SystemResetWarning,0827.7,4.99,000.00,023.2,022.3,000.0,031.9,025.0,12.6,0000.0,0007.34,0002.29,0001.19
2024-03-20 06:02:00,SystemResetWarning,0827.7,5.00,000.00,023.2,022.3,000.0,031.9,025.0,12.7,0000.0,0007.33,0002.29,0001.18
2024-03-20 06:03:00,SystemResetWarning,0827.7,5.00,000.00,023.2,022.2,000.0,031.9,025.0,12.5,0000.0,0007.28,0002.26,0001.16
2024-03-20 06:04:00,SystemResetWarning,0827.7,5.01,000.00,023.1,022.2,000.0,031.8,025.0,12.5,0000.0,0007.32,0002.24,0001.16
2024-03-20 06:05:00,SystemResetWarning,0827.7,5.00,000.00,023.1,022.2,000.0,031.8,025.0,12.5,0000.0,0007.06,0002.20,0001.15
2024-03-20 06:06:00,SystemResetWarning,0827.7,5.01,000.00,023.1,022.2,000.0,031.8,025.0,12.4,0000.0,0007.10,0002.22,0001.14
2024-03-20 06:07:00,SystemResetWarning,0827.7,5.00,000.00,023.1,022.2,000.0,031.8,024.9,12.4,0000.0,0006.41,0002.28,0001.15
2024-03-20 06:08:00,SystemResetWarning,0827.7,5.00,000.00,023.1,022.2,000.0,031.8,024.9,12.4,0000.0,0006.90,0002.26,0001.14
2024-03-20 06:09:00,SystemResetWarning,0827.7,4.99,000.00,023.1,022.2,000.0,031.8,024.9,12.4,0000.0,0006.58,0002.26,0001.14
2024-03-20 06:10:00,SystemResetWarning,0827.7,5.00,000.00,023.1,022.2,000.0,031.8,024.9,12.4,0000.0,0006.55,0002.28,0001.12
2024-03-20 06:11:00,SystemResetWarning,0827.7,5.00,000.00,023.1,022.2,000.0,031.8,024.9,12.4,0000.0,0006.41,0002.23,0001.10
2024-03-20 06:12:00,SystemResetWarning,0827.7,5.01,000.00,023.1,022.1,000.0,031.8,024.9,12.3,0000.0,0006.29,0002.23,0001.10
2024-03-20 06:13:00,SystemResetWarning,0827.7,4.99,000.00,023.1,022.1,000.0,031.7,024.9,12.2,0000.0,0006.24,0002.20,0001.10
2024-03-20 06:14:00,SystemResetWarning,0827.7,4.99,000.00,023.0,022.1,000.0,031.7,024.9,12.2,0000.0,0006.32,0002.14,0001.09
2024-03-20 06:15:00,SystemResetWarning,0827.7,5.00,000.00,023.0,022.1,000.0,031.7,024.9,12.4,0000.0,0006.32,0002.12,0001.08
2024-03-20 06:16:00,SystemResetWarning,0827.7,5.01,000.00,023.0,022.1,000.0,031.7,024.9,12.5,0000.0,0006.28,0002.10,0001.09
2024-03-20 06:17:00,SystemResetWarning,0827.7,5.00,000.00,023.0,022.1,000.0,031.7,024.9,12.4,0000.0,0006.10,0002.08,0001.09
2024-03-20 06:18:00,SystemResetWarning,0827.7,5.00,000.00,023.0,022.1,000.0,031.7,024.9,12.3,0000.0,0005.97,0002.08,0001.10
2024-03-20 06:19:00,SystemResetWarning,0827.7,4.99,000.00,023.0,022.1,000.0,031.7,024.8,12.3,0000.0,0004.86,0002.04,0001.09
2024-03-20 06:20:00,SystemResetWarning,0827.7,5.00,000.00,023.0,022.1,000.0,031.7,024.8,12.3,0000.0,0004.34,0002.00,0001.09
2024-03-20 06:21:00,SystemResetWarning,0827.7,5.00,000.00,023.0,022.1,000.0,031.6,024.8,12.3,0000.0,0004.22,0002.00,0001.09
2024-03-20 06:22:00,SystemResetWarning,0827.7,5.01,000.00,023.0,022.1,000.0,031.6,024.8,12.2,0000.0,0004.19,0002.04,0001.09
2024-03-20 06:23:00,SystemResetWarning,0827.7,5.01,000.00,022.9,022.0,000.0,031.6,024.8,12.3,0000.0,0004.47,0002.11,0001.10
2024-03-20 06:24:00,SystemResetWarning,0827.7,5.00,000.00,022.9,022.0,000.0,031.6,024.8,12.3,0000.0,0004.54,0002.13,0001.11
2024-03-20 06:25:00,SystemResetWarning,0827.7,4.99,000.00,022.9,022.0,000.0,031.6,024.8,12.3,0000.0,0004.41,0002.15,0001.11
2024-03-20 06:26:00,SystemResetWarning,0827.7,4.99,000.00,022.9,022.0,000.0,031.6,024.8,12.3,0000.0,0004.37,0002.14,0001.12
2024-03-20 06:27:00,SystemResetWarning,0827.7,5.01,000.00,022.9,022.0,000.0,031.6,024.8,12.4,0000.0,0004.60,0002.18,0001.12
2024-03-20 06:28:00,SystemResetWarning,0827.7,5.01,000.00,022.9,022.0,000.0,031.6,024.8,12.4,0000.0,0004.84,0002.22,0001.10
2024-03-20 06:29:00,SystemResetWarning,0827.7,5.01,000.00,022.9,022.0,000.0,031.6,024.8,12.5,0000.0,0004.92,0002.23,0001.09
2024-03-20 06:30:00,SystemResetWarning,0827.7,4.99,000.00,022.9,022.0,000.0,031.6,024.7,12.5,0000.0,0004.94,0002.24,0001.09
2024-03-20 06:31:00,SystemResetWarning,0827.7,4.99,000.00,022.9,022.0,000.0,031.5,024.7,12.6,0000.0,0004.92,0002.22,0001.09
2024-03-20 06:32:00,SystemResetWarning,0827.7,5.00,000.00,022.9,022.0,000.0,031.5,024.7,12.6,0000.0,0004.77,0002.13,0001.09
2024-03-20 06:33:00,SystemResetWarning,0827.7,5.00,000.00,022.8,021.9,000.0,031.5,024.7,12.6,0000.0,0005.54,0002.07,0001.09
2024-03-20 06:34:00,SystemResetWarning,0827.7,5.01,000.00,022.8,021.9,000.0,031.5,024.7,12.6,0000.0,0005.36,0001.97,0001.09
2024-03-20 06:35:00,SystemResetWarning,0827.7,5.01,000.00,022.8,021.9,000.0,031.5,024.7,12.6,0000.0,0005.27,0001.94,0001.08
2024-03-20 06:36:00,SystemResetWarning,0827.7,4.99,000.00,022.8,021.9,000.0,031.5,024.7,12.7,0000.0,0005.33,0002.01,0001.09
2024-03-20 06:37:00,SystemResetWarning,0827.7,4.99,000.00,022.8,021.9,000.0,031.5,024.7,12.7,0000.0,0005.47,0002.07,0001.09
2024-03-20 06:38:00,SystemResetWarning,0827.7,5.00,000.00,022.8,021.9,000.0,031.5,024.6,12.7,0000.0,0005.43,0002.07,0001.07
2024-03-20 06:39:00,SystemResetWarning,0827.7,5.01,000.00,022.8,021.9,000.0,031.5,024.6,12.7,0000.0,0006.21,0002.09,0001.09
2024-03-20 06:40:00,SystemResetWarning,0827.7,5.01,000.00,022.8,021.9,000.0,031.4,024.6,12.7,0000.0,0006.84,0002.05,0001.09
2024-03-20 06:41:00,SystemResetWarning,0827.7,4.99,000.00,022.8,021.9,000.0,031.4,024.6,12.7,0000.0,0006.99,0002.09,0001.09
2024-03-20 06:42:00,SystemResetWarning,0827.7,4.99,000.00,022.8,021.9,000.0,031.4,024.6,12.7,0000.0,0007.07,0002.11,0001.08
2024-03-20 06:43:00,SystemResetWarning,0827.7,4.99,000.00,022.7,021.9,000.0,031.4,024.6,12.7,0000.0,0007.44,0002.15,0001.08
2024-03-20 06:44:00,SystemResetWarning,0827.7,5.00,000.00,022.7,021.9,000.0,031.4,024.6,12.8,0000.0,0007.53,0002.19,0001.09
2024-03-20 06:45:00,SystemResetWarning,0827.7,5.01,000.00,022.7,021.8,000.0,031.4,024.6,12.8,0000.0,0007.12,0002.17,0001.08
2024-03-20 06:46:00,SystemResetWarning,0827.7,4.99,000.00,022.7,021.8,000.0,031.4,024.6,12.8,0000.0,0007.16,0002.17,0001.08
2024-03-20 06:47:00,SystemResetWarning,0827.7,4.99,000.00,022.7,021.8,000.0,031.4,024.6,12.8,0000.0,0007.10,0002.13,0001.07
2024-03-20 06:48:00,SystemResetWarning,0827.7,5.01,000.00,022.7,021.8,000.0,031.4,024.5,12.8,0000.0,0006.86,0002.04,0001.08
2024-03-20 06:49:00,SystemResetWarning,0827.7,5.01,000.00,022.7,021.8,000.0,031.4,024.5,12.7,0000.0,0006.75,0002.03,0001.07
2024-03-20 06:50:00,SystemResetWarning,0827.7,5.00,000.00,022.7,021.8,000.0,031.4,024.6,12.7,0000.0,0006.35,0002.07,0001.08
2024-03-20 06:51:00,SystemResetWarning,0827.7,5.00,000.00,022.7,021.8,000.0,031.3,024.5,12.7,0000.0,0005.38,0002.13,0001.08
2024-03-20 06:52:00,SystemResetWarning,0827.7,4.99,000.00,022.7,021.8,000.0,031.3,024.5,12.8,0000.0,0005.39,0002.16,0001.08
2024-03-20 06:53:00,SystemResetWarning,0827.7,5.00,000.00,022.7,021.8,000.0,031.3,024.5,12.8,0000.0,0005.58,0002.19,0001.08
2024-03-20 06:54:00,SystemResetWarning,0827.7,4.99,000.00,022.6,021.8,000.0,031.3,024.5,12.8,0000.0,0004.91,0002.13,0001.07
2024-03-20 06:55:00,SystemResetWarning,0827.8,5.00,000.00,022.6,021.8,000.0,031.3,024.5,12.8,0000.0,0004.35,0002.09,0001.07
2024-03-20 06:56:00,SystemResetWarning,0827.7,5.00,000.00,022.6,021.8,000.0,031.3,024.5,12.8,0000.0,0004.74,0002.11,0001.08
2024-03-20 06:57:00,SystemResetWarning,0827.7,5.02,000.00,022.6,021.7,000.0,031.3,024.5,12.8,0000.0,0005.24,0002.15,0001.07
2024-03-20 06:58:00,SystemResetWarning,0827.7,5.00,000.00,022.6,021.7,000.0,031.3,024.5,12.8,0000.0,0005.28,0002.16,0001.06
2024-03-20 06:59:00,SystemResetWarning,0827.7,4.99,000.00,022.6,021.7,000.0,031.3,024.4,12.9,0000.0,0005.22,0002.12,0001.04
